Satellite-Ground Cal/Val Site Overpasses Predictions

Prediction of Satellite NPP Overpassing Cal/Val Site: Antarctic Dome C

Ground Cal/Val Site Location: Latitude: -75.10, Longitude: 123.35; Satellite-Ground Site NADIR distance within 100 km.

Table of predicted overpasses for the next 14.0 days since TLE Epoch: 4/21/2012
Interval Starting Time Ending Time Minimum Distance Time Minimum Distance (km)
1 04/21/2012 14:54:03 04/21/2012 14:54:32 04/21/2012 14:54:17 21.88
2 04/22/2012 14:35:20 04/22/2012 14:35:34 04/22/2012 14:35:27 85.34
3 04/23/2012 07:36:52 04/23/2012 07:37:19 04/23/2012 07:37:06 39.86
4 04/24/2012 07:18:04 04/24/2012 07:18:25 04/24/2012 07:18:15 70.16
5 04/26/2012 15:00:18 04/26/2012 15:00:42 04/26/2012 15:00:30 58.78
6 04/27/2012 14:41:27 04/27/2012 14:41:52 04/27/2012 14:41:40 50.52
7 04/28/2012 07:43:08 04/28/2012 07:43:27 04/28/2012 07:43:17 74.85
8 04/29/2012 07:24:14 04/29/2012 07:24:41 04/29/2012 07:24:28 33.05
9 05/01/2012 15:06:39 05/01/2012 15:06:46 05/01/2012 15:06:42 96.36
10 05/02/2012 14:47:36 05/02/2012 14:48:05 05/02/2012 14:47
